Showing default

QIANFAN-22, 61555

Orbit data source: Space-Track

QIANFAN-22, 61555 is a Chinese payload satellite in LEO that was launched on Tue, 15 Oct 2024 UTC via a CHANG ZHENG 6A launch vehicle from the Taiyaun Space Center, China (TSC). Payloads include a variety of satellites, spacecraft, and rockets equipped with specific instruments for various scientific and technological missions. These include communications satellites like Starlink; space stations such as the ISS; scientific satellites like the Hubble; Earth observation satellites from companies like Planet Labs, Umbra, and HawkEye 360; GPS; miniature CubeSats for education and research; and military/defense satellites.

Loading next visibility...
QIANFAN-22 details
Identifier
61555, 2024-185D
Orbit
LEO
Last TLE update12 hours ago
Origin
Flag of CNYUANX (CN / PRC)
ManufacturerGESIH/SECM
MissionOperational Commercial Communications
Bus & MotorQIANFAN, Unknown motor
Mass300 kg wet, ~300 kg dry
Launch date (UTC)
2024-10-15 (4 months ago)
Launch vehicle
CHANG ZHENG 6A
Launch site
Taiyaun Space Center, China (TSC)
Object type
Payload
Rocket body
Debris
Shape & HBRBox + 1 Pan, 10 m
Radar Cross Section13.200 m², Large (>1 m²)

Expand to show TLE details & history

TLE from 12 hours ago
0 QIANFAN-22
1 61555U 24185D   25035.80386123  .00000740  00000-0  40329-3 0  9990
2 61555  88.9879 113.4133 0005603 204.8010 155.2907 14.11155054 25786
Epoch: 2025-02-04T19:17Z
Definitive object data (Epoch: 2025-02-04T19:17:33.61Z)
Latitude0.00003°
Longitude48.81936°
Altitude862.145 km
Speed7.419 km/s
True Right ascension07h 33m 39s
True Declination0° 00' 00"
Sunlit
Object was in full shadow at TLE epoch
Visualization TLE readout
Latitude-60.25546°
Longitude47.0022°
Altitude879.225 km
Speed7.411 km/s
Apparent Right ascension23h 44m 02s
Apparent Declination-78° 30' 54"
Sunlit
Object is in daylight
Visualization observer readout
Local Sidereal Time08:57:29
Azimuth191.399° SSW
Elevation-47.983°
Doppler factor1
Orbital elements
Apogee altitude856.437 km
Perigee altitude848.335 km
Semi-major axis7,230.523 km
Eccentricity0.0005603
Inclination88.9879°
RAAN113.4133°
Arg. of periapsis204.801°
True anomaly155.31752°
Mean anomaly155.2907°
Eccentric anomaly155.30411°
Mean motion3.53011 °/min
BSTAR0.00040329
Orbital period101.98 mins
Loading maneuver chart data...
Loading historical data...
Loading historical data...
Loading historical data...
Loading historical data...
Loading historical data...
Loading historical data...
Loading historical data...

QIANFAN-22 Visibility forecast

Observer location: undefined°, undefined

Span
Click to sort rows by Start time (UTC) header in descending order
Start Az.
Max El. time (UTC)
Max El. Az.
Max El.
End time (UTC)
End Az.
8 mins2025-02-05 16:18:14.358Z29.939° NE2025-02-05 16:22:14.358Z79.169° E22.5°2025-02-05 16:26:14.358Z130.858° SE
8 mins2025-02-05 18:01:14.358Z335.252° NNW2025-02-05 18:04:14.358Z285.331° WNW32.754°2025-02-05 18:09:14.358Z211.933° SW
9 mins2025-02-06 05:27:14.358Z178.227° S2025-02-06 05:31:14.358Z349.348° N44.828°2025-02-06 05:36:14.358Z358.881° N
|